Waarnemingen

Advertentie
Mijn weer
Hoogeveen aws, Nederland (6279): temperatuur & dauwpunt: 15.07.2017 06:00:00 - 21.07.2017 06:00:00 (CEST)Hoogeveen aws, Nederland (6279): temperatuur 5cm: 15.07.2017 06:00:00 - 21.07.2017 06:00:00 (CEST)Hoogeveen aws, Nederland (6279): windsnelheid & windstoten: 15.07.2017 06:00:00 - 21.07.2017 06:00:00 (CEST)Hoogeveen aws, Nederland (6279): windrichting: 15.07.2017 06:00:00 - 21.07.2017 06:00:00 (CEST)Hoogeveen aws, Nederland (6279): luchtdruk: 15.07.2017 06:00:00 - 21.07.2017 06:00:00 (CEST)Hoogeveen aws, Nederland (6279): zicht: 15.07.2017 06:00:00 - 21.07.2017 06:00:00 (CEST)Hoogeveen aws, Nederland (6279): neerslag: 15.07.2017 06:00:00 - 21.07.2017 06:00:00 (CEST)
Datum & Tijd tt [°C] td [°C] tt 5cm [°C] ff [km/u] ff [kn] fx [km/u] fx [kn] dd ppp [hPa] vv [km] rr [mm]
21.07.2017 06:00:00 10,9 10,8 9,9 4 2 4 2 ZZO 1014,0 0,2 0,0
21.07.2017 05:00:00 11,3 11,1 10,2 4 2 - - ZO 1013,7 0,3 0,0
21.07.2017 04:00:00 12,0 11,7 10,5 7 4 7 4 Z 1013,4 3,9 0,0
21.07.2017 03:00:00 12,9 12,3 12,0 4 2 7 4 ZW 1013,3 12 0,0
21.07.2017 02:00:00 13,9 13,1 13,3 7 4 - - ZW 1013,1 23 0,0
21.07.2017 01:00:00 14,7 13,8 14,2 11 6 18 10 WZW 1012,6 20 0,0
21.07.2017 00:00:00 15,6 14,3 15,1 11 6 25 14 WZW 1012,1 25 0,0
20.07.2017 23:00:00 16,8 15,1 16,3 14 8 - - W 1011,6 27 0,0
20.07.2017 22:00:00 17,8 16,5 17,4 14 8 25 14 WZW 1010,8 19 0,0
20.07.2017 21:00:00 18,2 17,3 17,9 14 8 32 18 WZW 1009,9 23 1,5
20.07.2017 20:00:00 18,2 18,1 17,9 7 4 - - WZW 1008,6 9 9,7
20.07.2017 19:00:00 23,1 18,0 24,3 7 4 22 12 W 1007,6 40 0,0
20.07.2017 18:00:00 22,9 18,5 24,0 14 8 25 14 W 1007,7 37 0,0
20.07.2017 17:00:00 21,2 18,2 19,3 14 8 - - WZW 1007,5 34 7,9
20.07.2017 16:00:00 24,0 17,8 23,9 11 6 29 16 ZW 1006,7 19 0,0
20.07.2017 15:00:00 24,6 19,3 25,5 14 8 29 16 Z 1006,9 16 0,0
20.07.2017 14:00:00 23,1 18,7 23,6 14 8 - - Z 1007,0 24 0,0
20.07.2017 13:00:00 22,8 18,5 23,4 11 6 22 12 ZZW 1007,2 17 0,0
20.07.2017 12:00:00 21,1 18,2 21,8 14 8 25 14 ZZW 1007,5 15 0,0
20.07.2017 11:00:00 20,4 18,3 20,6 14 8 - - ZZW 1007,5 12 0,0
20.07.2017 10:00:00 19,6 18,4 19,7 18 10 25 14 Z 1007,8 10 0,0
20.07.2017 09:00:00 18,9 17,6 18,9 14 8 22 12 Z 1007,6 19 0,0
20.07.2017 08:00:00 18,4 17,5 18,3 14 8 - - ZZW 1007,5 23 0,0
20.07.2017 07:00:00 17,8 17,3 17,5 7 4 32 18 Z 1006,9 41 1,3
20.07.2017 06:00:00 18,4 17,1 18,1 32 18 54 29 ZZW 1007,4 8 1,2
20.07.2017 05:00:00 18,8 17,5 18,3 11 6 - - Z 1006,7 4,5 0,1
20.07.2017 04:00:00 18,5 17,4 18,1 7 4 14 8 ZZO 1007,3 9 0,0
20.07.2017 03:00:00 18,6 17,1 18,0 11 6 18 10 OZO 1007,9 18 0,0
20.07.2017 02:00:00 19,3 17,1 18,8 11 6 - - ZO 1008,0 28 0,0
20.07.2017 01:00:00 20,1 16,9 19,4 11 6 14 8 ZO 1008,6 26 0,0
20.07.2017 00:00:00 20,1 16,6 19,0 7 4 18 10 ZZO 1008,5 34 0,0
19.07.2017 23:00:00 21,1 16,1 19,9 11 6 - - ZZO 1008,3 35 -
19.07.2017 22:00:00 22,0 16,0 20,5 11 6 18 10 Z 1008,3 33 0,0
19.07.2017 21:00:00 24,5 16,0 23,6 14 8 22 12 ZZO 1008,0 38 0,0
19.07.2017 20:00:00 25,8 18,1 24,9 11 6 - - ZZO 1007,4 32 0,0
19.07.2017 19:00:00 26,6 17,7 25,8 18 10 29 16 Z 1007,5 40 0,0
19.07.2017 18:00:00 29,9 20,5 30,3 14 8 25 14 ZW 1007,1 27 0,0
19.07.2017 17:00:00 29,3 21,1 28,1 7 4 - - ZZW 1007,5 31 0,0
19.07.2017 16:00:00 29,0 19,6 28,9 14 8 32 18 ZO 1007,9 44 0,0
19.07.2017 15:00:00 28,9 18,8 29,0 22 12 32 18 ZO 1008,5 29 0,0
19.07.2017 14:00:00 28,1 18,7 28,8 25 14 - - OZO 1008,7 28 0,0
19.07.2017 13:00:00 27,0 18,0 27,4 22 12 36 19 OZO 1009,4 33 0,0
19.07.2017 12:00:00 25,0 17,8 26,0 22 12 32 18 O 1009,9 30 0,0
19.07.2017 11:00:00 22,8 17,0 22,9 18 10 29 16 O 1010,7 31 0,0
19.07.2017 10:00:00 21,2 16,4 21,3 14 8 25 14 O 1011,4 34 0,0
19.07.2017 09:00:00 19,4 14,7 19,6 18 10 29 16 O 1012,0 34 0,0
19.07.2017 08:00:00 17,6 14,2 17,5 18 10 - - O 1012,3 35 0,0
19.07.2017 07:00:00 16,1 13,5 15,5 14 8 25 14 O 1013,1 34 0,0
19.07.2017 06:00:00 15,1 13,2 14,1 14 8 22 12 ONO 1013,3 25 0,0
19.07.2017 05:00:00 15,0 13,2 14,1 14 8 - - ONO 1013,7 23 0,0
19.07.2017 04:00:00 15,2 13,3 14,3 14 8 22 12 ONO 1014,3 21 0,0
19.07.2017 03:00:00 15,4 13,5 14,5 11 6 22 12 ONO 1014,9 21 0,0
19.07.2017 02:00:00 15,9 13,9 14,9 14 8 - - ONO 1015,5 21 0,0
19.07.2017 01:00:00 15,4 14,0 14,2 11 6 14 8 NO 1016,2 19 0,0
19.07.2017 00:00:00 15,4 13,5 14,1 11 6 18 10 NO 1016,5 29 0,0
18.07.2017 23:00:00 17,1 13,8 15,6 11 6 - - ONO 1016,8 41 0,0
18.07.2017 22:00:00 17,9 14,5 16,6 14 8 18 10 NO 1016,9 43 0,0
18.07.2017 21:00:00 20,5 13,6 19,1 11 6 18 10 ONO 1017,4 42 0,0
18.07.2017 20:00:00 22,3 14,1 21,7 14 8 - - O 1017,6 42 0,0
18.07.2017 19:00:00 22,6 14,0 22,0 14 8 25 14 ONO 1017,9 40 0,0
18.07.2017 18:00:00 22,7 13,6 22,8 14 8 22 12 O 1018,3 36 0,0
18.07.2017 17:00:00 22,2 13,5 22,0 14 8 - - OZO 1018,8 35 0,0
18.07.2017 16:00:00 22,4 13,9 22,8 14 8 25 14 O 1019,5 31 0,0
18.07.2017 15:00:00 22,4 13,6 23,8 14 8 25 14 O 1020,1 35 0,0
18.07.2017 14:00:00 21,5 13,4 23,3 11 6 - - O 1020,7 33 0,0
18.07.2017 13:00:00 20,9 14,1 22,6 11 6 25 14 ONO 1021,4 31 0,0
18.07.2017 12:00:00 19,9 13,4 21,6 11 6 22 12 ONO 1021,9 35 0,0
18.07.2017 11:00:00 18,6 12,2 20,1 14 8 22 12 ONO 1022,3 36 0,0
18.07.2017 10:00:00 18,0 12,8 19,2 11 6 22 12 ONO 1022,6 33 0,0
18.07.2017 09:00:00 16,6 12,8 17,2 11 6 18 10 O 1022,7 34 0,0
18.07.2017 08:00:00 14,7 12,1 15,1 7 4 11 6 ONO 1022,7 23 0,0
18.07.2017 07:00:00 12,3 11,2 12,2 7 4 7 4 ONO 1022,8 19 0,0
18.07.2017 06:00:00 10,2 9,9 9,8 7 4 7 4 NO 1022,9 12 0,0
18.07.2017 05:00:00 10,0 9,9 9,3 4 2 7 4 ONO 1022,7 11 0,0
18.07.2017 04:00:00 9,9 9,8 9,2 4 2 7 4 NO 1022,9 12 0,0
18.07.2017 03:00:00 10,3 10,0 9,1 7 4 7 4 NO 1023,1 14 0,0
18.07.2017 02:00:00 11,2 10,8 9,7 4 2 7 4 NO 1023,2 18 0,0
18.07.2017 01:00:00 12,0 11,2 10,5 4 2 7 4 NO 1023,1 27 0,0
18.07.2017 00:00:00 12,9 11,8 11,2 7 4 11 6 NO 1023,4 33 0,0
17.07.2017 23:00:00 13,8 12,2 12,1 7 4 11 6 NO 1023,3 36 0,0
17.07.2017 22:00:00 15,2 12,3 13,9 7 4 11 6 N 1023,0 44 0,0
17.07.2017 21:00:00 17,8 12,6 17,2 11 6 18 10 NNW 1022,8 44 0,0
17.07.2017 20:00:00 20,1 13,4 20,5 11 6 14 8 NNW 1022,6 43 0,0
17.07.2017 19:00:00 21,3 13,1 23,0 11 6 18 10 NW 1022,5 43 0,0
17.07.2017 18:00:00 21,8 13,2 23,2 7 4 18 10 NW 1022,6 38 0,0
17.07.2017 17:00:00 21,8 11,6 24,1 11 6 18 10 WNW 1022,9 39 0,0
17.07.2017 16:00:00 21,0 11,5 22,1 11 6 22 12 NW 1023,0 36 0,0
17.07.2017 15:00:00 21,1 12,9 22,1 11 6 18 10 NW 1023,1 40 0,0
17.07.2017 14:00:00 20,0 11,8 22,3 7 4 14 8 NW 1023,3 40 0,0
17.07.2017 13:00:00 20,1 12,6 22,2 7 4 18 10 NW 1023,3 42 0,0
17.07.2017 12:00:00 19,2 10,7 21,9 11 6 18 10 NW 1023,4 39 0,0
17.07.2017 11:00:00 18,8 11,0 20,6 11 6 18 10 NNW 1023,6 40 0,0
17.07.2017 10:00:00 17,6 11,3 18,8 11 6 18 10 NW 1023,5 45 0,0
17.07.2017 09:00:00 16,6 12,7 18,4 11 6 14 8 NNW 1023,3 43 0,0
17.07.2017 08:00:00 14,8 12,8 16,1 7 4 11 6 NW 1023,1 35 0,0
17.07.2017 07:00:00 12,5 12,1 12,8 4 2 4 2 W 1022,6 14 0,0
17.07.2017 06:00:00 10,9 10,8 7,9 4 2 7 4 WNW 1022,3 9 0,0
17.07.2017 05:00:00 11,2 11,0 9,0 4 2 7 4 NW 1022,2 0,4 0,0
17.07.2017 04:00:00 13,0 12,6 11,3 4 2 14 8 NW 1022,2 16 0,0
17.07.2017 03:00:00 14,8 13,8 14,2 11 6 14 8 NW 1022,1 22 0,0
17.07.2017 02:00:00 16,4 15,1 16,2 7 4 11 6 WNW 1022,0 29 0,0
17.07.2017 01:00:00 16,8 15,3 16,5 7 4 14 8 WNW 1021,9 35 0,0
17.07.2017 00:00:00 17,2 15,8 16,9 7 4 14 8 WNW 1021,9 27 0,0
16.07.2017 23:00:00 18,0 16,8 17,6 11 6 18 10 WNW 1021,9 13 0,0
16.07.2017 22:00:00 18,2 17,1 17,9 11 6 18 10 W 1021,7 14 0,0
16.07.2017 21:00:00 18,5 17,4 18,3 11 6 22 12 WZW 1021,5 16 0,0
16.07.2017 20:00:00 18,8 17,2 18,8 11 6 25 14 W 1021,4 10 0,0
16.07.2017 19:00:00 19,2 17,6 19,4 14 8 22 12 W 1021,5 8 0,0
16.07.2017 18:00:00 19,1 17,2 19,1 14 8 25 14 W 1021,6 11 0,0
16.07.2017 17:00:00 19,7 17,7 19,7 14 8 29 16 W 1021,6 24 0,0
16.07.2017 16:00:00 20,3 17,2 20,3 22 12 32 18 W 1021,3 14 0,0
16.07.2017 15:00:00 20,7 17,9 20,9 14 8 29 16 WZW 1021,3 10 0,0
16.07.2017 14:00:00 20,1 17,4 20,4 18 10 29 16 ZW 1021,1 9 0,0
16.07.2017 13:00:00 19,3 17,4 19,7 18 10 29 16 ZW 1021,2 8 0,0
16.07.2017 12:00:00 18,6 16,9 18,9 18 10 25 14 ZZW 1021,1 8 0,0
16.07.2017 11:00:00 18,2 16,4 18,2 18 10 25 14 ZZW 1021,3 7 0,0
16.07.2017 10:00:00 17,4 15,5 17,5 14 8 22 12 ZZW 1021,3 10 0,0
16.07.2017 09:00:00 16,8 14,7 16,8 14 8 22 12 ZZW 1021,1 12 0,0
16.07.2017 08:00:00 16,3 13,9 16,1 14 8 25 14 ZZW 1020,9 15 0,0
16.07.2017 07:00:00 16,1 13,7 15,8 14 8 25 14 ZZW 1020,9 21 0,0
16.07.2017 06:00:00 15,8 13,7 15,4 14 8 22 12 ZW 1020,9 22 0,0
16.07.2017 05:00:00 16,2 13,7 15,9 14 8 22 12 ZZW 1020,8 21 0,0
16.07.2017 04:00:00 16,3 14,3 15,9 11 6 14 8 ZZW 1021,2 16 0,0
16.07.2017 03:00:00 16,4 14,5 16,1 7 4 11 6 ZW 1021,4 16 0,0
16.07.2017 02:00:00 16,4 14,4 16,1 7 4 14 8 ZZW 1021,4 19 0,0
16.07.2017 01:00:00 16,8 14,3 16,4 7 4 14 8 ZW 1021,7 21 0,0
16.07.2017 00:00:00 16,9 13,9 16,2 7 4 11 6 Z 1021,7 29 0,0
15.07.2017 23:00:00 16,9 14,0 16,2 7 4 11 6 ZZO 1021,9 31 0,0
15.07.2017 22:00:00 17,0 14,2 16,2 7 4 11 6 ZZO 1021,7 34 0,0
15.07.2017 21:00:00 18,6 14,8 18,4 4 2 7 4 ZZW 1021,8 34 0,0
15.07.2017 20:00:00 18,9 14,0 18,7 4 2 18 10 WZW 1021,7 41 0,0
15.07.2017 19:00:00 19,3 13,1 19,0 11 6 22 12 ZW 1021,7 46 0,0
15.07.2017 18:00:00 20,0 12,2 20,0 11 6 18 10 ZW 1021,8 45 0,0
15.07.2017 17:00:00 21,0 12,9 22,1 11 6 22 12 W 1021,9 41 0,0
15.07.2017 16:00:00 21,0 12,9 21,3 11 6 25 14 W 1022,1 38 0,0
15.07.2017 15:00:00 20,1 11,9 20,8 14 8 25 14 W 1022,1 31 0,0
15.07.2017 14:00:00 20,6 12,3 20,8 14 8 29 16 W 1021,9 36 0,0
15.07.2017 13:00:00 18,7 12,1 19,5 11 6 25 14 W 1021,8 46 0,0
15.07.2017 12:00:00 18,2 12,7 19,3 11 6 22 12 W 1021,7 39 0,0
15.07.2017 11:00:00 17,8 12,5 20,1 7 4 25 14 NW 1021,5 42 0,0
15.07.2017 10:00:00 17,0 12,3 18,6 14 8 25 14 WNW 1021,4 32 0,0
15.07.2017 09:00:00 16,0 12,6 16,9 14 8 22 12 WNW 1020,9 33 0,0
15.07.2017 08:00:00 14,3 12,5 13,8 7 4 18 10 W 1020,5 31 0,0
15.07.2017 07:00:00 13,5 12,4 13,4 7 4 18 10 W 1020,1 21 0,0
15.07.2017 06:00:00 12,8 12,0 12,4 11 6 18 10 W 1019,5 21 0,0

tt = temperatuur
td = dauwpunt
tt 5cm = temperatuur 5cm
ff = windsnelheid
fx = windstoten
dd = windrichting
ppp = luchtdruk
vv = zicht
rr = neerslag

Weerstations in de omgeving